Location: Oshawa
(43.9000°N, 78.8670°W)
Time: 05:55:33
(UTC-05:00)

Iridium 98 - Visible Passes

Search period start: 13 February 2016 00:00
Search period end: 23 February 2016 00:00
Orbit: 776 x 779 km, 86.4° (Epoch: 12 February)

Date Brightness Start Highest point End Pass type
(mag) Time Alt. Az. Time Alt. Az. Time Alt. Az.
13 Feb 7.1 05:18:11 10° SSE 05:22:56 37° E 05:27:42 10° NNE visible
13 Feb 8.7 19:09:52 10° NW 19:11:45 12° WNW 19:13:37 10° W visible
14 Feb 8.0 04:45:49 10° SE 04:49:40 21° E 04:53:30 10° NNE visible
14 Feb 5.7 06:24:58 10° SSW 06:30:00 48° W 06:35:03 10° N visible
14 Feb 8.3 18:34:43 10° NNW 18:38:36 21° W 18:42:28 10° SW visible
15 Feb 8.7 04:14:42 10° E 04:16:30 12° ENE 04:18:18 10° NE visible
15 Feb 5.5 05:51:11 10° S 05:56:24 86° W 06:01:40 10° N visible
16 Feb 6.3 05:17:54 10° SSE 05:22:57 53° E 05:28:01 10° NNE visible
17 Feb 7.4 04:45:08 10° SE 04:49:36 30° E 04:54:05 10° NNE visible
17 Feb 6.1 06:25:30 10° SW 06:30:12 34° W 06:34:56 10° NNW visible
17 Feb 8.5 18:35:34 10° NW 18:38:29 15° WNW 18:41:24 10° WSW visible
18 Feb 8.2 04:13:06 10° ESE 04:16:22 17° ENE 04:19:38 10° NE visible
18 Feb 5.5 05:51:23 10° SSW 05:56:32 60° W 06:01:42 10° N visible
19 Feb 5.7 05:17:48 10° S 05:22:59 76° E 05:28:13 10° N visible
20 Feb 6.7 04:44:42 10° SSE 04:49:34 42° E 04:54:28 10° NNE visible
20 Feb 6.5 06:26:16 10° SW 06:30:27 24° WNW 06:34:40 10° NNW visible
20 Feb 9.0 18:37:31 10° WNW 18:38:20 10° WNW 18:39:08 10° W visible
21 Feb 7.7 04:12:12 10° SE 04:16:16 24° E 04:20:22 10° NNE visible
21 Feb 5.8 05:51:47 10° SSW 05:56:42 42° W 06:01:40 10° N visible
22 Feb 8.4 03:40:39 10° ESE 03:43:06 13° ENE 03:45:32 10° NE visible
22 Feb 5.4 05:17:53 10° S 05:23:05 77° W 05:28:20 10° N visible
